Regional Weather Roundup
Issued by NWS

Home | Current Version | Previous Version | Graphics & Text | Print | Product List | Glossary On
Versions: 1 2 3 4 5 6 7 8 9 10 11 12 13 14 15 16 17 18 19 20 21 22 23 24 25 26 27 28 29 30 31 32 33 34 35 36 37 38 39 40 41 42 43 44 45 46 47 48 49 50
000
ASUS43 KFSD 190702
RWRSD

WEATHER ROUNDUP FOR SOUTH DAKOTA
NATIONAL WEATHER SERVICE SIOUX FALLS SD
100 AM CST FRI DEC 19 2014

NOTE: "FAIR" INDICATES FEW OR NO CLOUDS BELOW 12,000 FEET WITH NO
SIGNIFICANT WEATHER AND/OR OBSTRUCTIONS TO VISIBILITY.


SDZ001>005-009-010-012>017-190800-
NORTHWEST AND NORTH CENTRAL SOUTH DAKOTA

CITY           SKY/WX    TMP DP  RH WIND       PRES   REMARKS
BUFFALO          N/A     28  21  75 W8        29.89S WCI  20
FAITH            N/A     22  19  89 S9        29.98F WCI  12
MOBRIDGE       CLEAR     22  20  92 S9        30.00S WCI  12
$$

SDZ012>016-024>037-041>051-057-063-072>074-190800-
SOUTHWEST AND SOUTH CENTRAL SOUTH DAKOTA

CITY           SKY/WX    TMP DP  RH WIND       PRES   REMARKS
RAPID CTY ARPT CLEAR     27  18  69 W5        30.00F WCI  22
PIERRE         FOG       14  12  92 S3        30.04F VSB 1/4
CUSTER         CLEAR     23  15  71 NW3       29.99F
ELLSWORTH AFB  CLEAR     28  18  66 SW6       29.99F WCI  22
PHILIP         CLEAR     14  11  87 CALM      30.03F
PINE RIDGE     PTCLDY    24  16  71 W3        30.04F
WINNER         FAIR      25  19  78 SW7       30.06F WCI  17
$$

SDZ004>011-016>023-039-040-190800-
NORTHEAST SOUTH DAKOTA

CITY           SKY/WX    TMP DP  RH WIND       PRES   REMARKS
ABERDEEN       CLOUDY    27  24  89 S10       30.11F WCI  17
WATERTOWN      CLOUDY    25  24  96 S8        30.12F FOG     WCI  16
SISSETON         N/A     23  22  96 S9        30.14F WCI  13
$$

SDZ017-020-022-023-036>040-048>070-190800-
SOUTHEAST SOUTH DAKOTA

CITY           SKY/WX    TMP DP  RH WIND       PRES   REMARKS
SIOUX FALLS    CLOUDY    28  25  88 S8        30.17F WCI  20
HURON          CLOUDY    27  24  89 S8        30.13F WCI  19
MITCHELL       CLOUDY    29  26  89 S9        30.15F WCI  20
YANKTON        CLOUDY    28  25  86 S8        30.19F WCI  20
$$

ABBREVIATIONS USED IN REMARKS
   TC - TEMPERATURE IN CELSIUS
  WCI - WIND CHILL INDEX
   HX - HEAT INDEX
  VSB - VISIBILITY




USA.gov is the U.S. government's official web portal to all federal, state and local government web resources and services.